When you browse on this site, cookies collect data to enhance your experience and personalize the content and advertising you see.
Visit our Privacy Policy to learn more. By continuing to use the site, you agree to this use of cookies and data.
  • In Portugal
  • List of Countries
  • For 7 days
  • Water Temperature
  • Satellite Maps
  • Weather Map
  • Weather Widgets
  • user-avatar
    Login

    Hourly Weather Adelaide

    Today, 24 January, Thursday

    Time Temperature Precipitation Wind Pressure Humidity
    00:00 +33°C° 0 mm 4 mps 752 mmHg 26%
    01:00 +33°C° 0 mm 5 mps 752 mmHg 25%
    02:00 +33°C° 0 mm 5 mps 752 mmHg 24%
    03:00 +33°C° 0 mm 5 mps 751 mmHg 22%
    04:00 +33°C° 0 mm 5 mps 751 mmHg 22%
    05:00 +34°C° 0 mm 5 mps 752 mmHg 23%
    06:00 +34°C° 0 mm 5 mps 752 mmHg 23%
    07:00 +36°C° 0 mm 5 mps 752 mmHg 21%
    08:00 +39°C° 0 mm 5 mps 751 mmHg 19%
    09:00 +42°C° 0 mm 6 mps 751 mmHg 16%
    10:00 +43°C° 0 mm 5 mps 751 mmHg 15%
    11:00 +45°C° 0 mm 4 mps 750 mmHg 14%
    12:00 +47°C° 0 mm 4 mps 750 mmHg 13%
    13:00 +47°C° 0 mm 3 mps 749 mmHg 13%
    14:00 +47°C° 0 mm 3 mps 748 mmHg 13%
    15:00 +47°C° 0 mm 3 mps 748 mmHg 13%
    16:00 +46°C° 0 mm 3 mps 748 mmHg 14%
    17:00 +46°C° 0 mm 2 mps 748 mmHg 15%
    18:00 +44°C° 0 mm 1 mps 748 mmHg 15%
    19:00 +42°C° 0 mm 2 mps 748 mmHg 17%
    20:00 +40°C° 0 mm 2 mps 748 mmHg 20%
    21:00 +38°C° 0 mm 3 mps 748 mmHg 22%
    22:00 +36°C° 0 mm 3 mps 749 mmHg 27%
    23:00 +34°C° 0 mm 3 mps 749 mmHg 33%

    Tomorrow, 25 January, Friday

    Time Temperature Precipitation Wind Pressure Humidity
    00:00 +33°C° 0 mm 4 mps 749 mmHg 38%
    01:00 +30°C° 0 mm 3 mps 749 mmHg 45%
    02:00 +29°C° 0 mm 3 mps 749 mmHg 51%
    03:00 +28°C° 0 mm 3 mps 750 mmHg 58%
    04:00 +28°C° 0 mm 3 mps 750 mmHg 61%
    05:00 +28°C° 0 mm 2 mps 751 mmHg 63%
    06:00 +27°C° 0 mm 1 mps 751 mmHg 66%
    07:00 +28°C° 0 mm 2 mps 751 mmHg 62%
    08:00 +29°C° 0 mm 2 mps 752 mmHg 58%
    09:00 +30°C° 0 mm 3 mps 752 mmHg 54%
    10:00 +31°C° 0 mm 3 mps 752 mmHg 49%
    11:00 +33°C° 0 mm 4 mps 752 mmHg 45%
    12:00 +34°C° 0 mm 4 mps 753 mmHg 40%
    13:00 +32°C° 0 mm 5 mps 753 mmHg 42%
    14:00 +30°C° 0 mm 5 mps 752 mmHg 44%
    15:00 +29°C° 0 mm 5 mps 752 mmHg 47%
    16:00 +28°C° 0 mm 5 mps 753 mmHg 52%
    17:00 +27°C° 0 mm 5 mps 753 mmHg 58%
    18:00 +25°C° 0 mm 4 mps 753 mmHg 63%
    19:00 +25°C° 0 mm 4 mps 754 mmHg 67%
    20:00 +24°C° 0 mm 3 mps 754 mmHg 71%
    21:00 +22°C° 0 mm 3 mps 754 mmHg 76%
    22:00 +22°C° 0 mm 3 mps 754 mmHg 76%
    23:00 +22°C° 0 mm 3 mps 754 mmHg 77%

    Day after tomorrow, 26 January, Saturday

    Time Temperature Precipitation Wind Pressure Humidity
    00:00 +22°C° 0 mm 4 mps 754 mmHg 78%
    01:00 +21°C° 0 mm 3 mps 753 mmHg 78%
    02:00 +21°C° 0 mm 3 mps 753 mmHg 79%
    03:00 +21°C° 0 mm 3 mps 753 mmHg 79%
    04:00 +21°C° 0 mm 3 mps 753 mmHg 78%
    05:00 +20°C° 0 mm 2 mps 754 mmHg 77%
    06:00 +20°C° 0 mm 2 mps 754 mmHg 76%
    07:00 +23°C° 0 mm 2 mps 754 mmHg 68%
    08:00 +24°C° 0 mm 3 mps 754 mmHg 59%
    09:00 +26°C° 0 mm 3 mps 754 mmHg 51%
    10:00 +26°C° 0 mm 3 mps 754 mmHg 48%
    11:00 +27°C° 0 mm 4 mps 754 mmHg 46%
    12:00 +28°C° 0 mm 4 mps 754 mmHg 43%
    13:00 +28°C° 0 mm 5 mps 754 mmHg 42%
    14:00 +27°C° 0 mm 5 mps 754 mmHg 41%
    15:00 +27°C° 0 mm 5 mps 754 mmHg 40%
    16:00 +26°C° 0 mm 4 mps 754 mmHg 44%
    17:00 +25°C° 0 mm 4 mps 754 mmHg 49%
    18:00 +23°C° 0 mm 4 mps 755 mmHg 53%
    19:00 +22°C° 0 mm 4 mps 755 mmHg 59%
    20:00 +21°C° 0 mm 3 mps 756 mmHg 65%
    21:00 +20°C° 0 mm 3 mps 756 mmHg 70%
    22:00 +19°C° 0 mm 3 mps 756 mmHg 72%
    23:00 +19°C° 0 mm 3 mps 756 mmHg 73%

    27 January, Sunday

    Time Temperature Precipitation Wind Pressure Humidity
    00:00 +18°C° 0 mm 3 mps 756 mmHg 75%
    01:00 +18°C° 0 mm 3 mps 756 mmHg 76%
    02:00 +18°C° 0 mm 3 mps 755 mmHg 78%
    03:00 +17°C° 0 mm 3 mps 755 mmHg 79%
    04:00 +17°C° 0 mm 2 mps 756 mmHg 77%
    05:00 +18°C° 0 mm 2 mps 756 mmHg 75%
    06:00 +18°C° 0 mm 2 mps 756 mmHg 73%
    07:00 +19°C° 0 mm 2 mps 757 mmHg 65%
    08:00 +21°C° 0 mm 2 mps 757 mmHg 56%
    09:00 +24°C° 0 mm 2 mps 757 mmHg 48%
    10:00 +25°C° 0 mm 3 mps 757 mmHg 46%
    11:00 +26°C° 0 mm 3 mps 757 mmHg 44%
    12:00 +27°C° 0 mm 4 mps 757 mmHg 42%
    13:00 +27°C° 0 mm 4 mps 756 mmHg 42%
    14:00 +27°C° 0 mm 4 mps 756 mmHg 41%
    15:00 +27°C° 0 mm 5 mps 756 mmHg 41%
    16:00 +26°C° 0 mm 5 mps 756 mmHg 45%
    17:00 +25°C° 0 mm 5 mps 756 mmHg 50%
    18:00 +23°C° 0 mm 5 mps 756 mmHg 54%
    19:00 +21°C° 0 mm 4 mps 757 mmHg 60%
    20:00 +20°C° 0 mm 4 mps 757 mmHg 65%
    21:00 +19°C° 0 mm 3 mps 758 mmHg 71%
    22:00 +18°C° 0 mm 3 mps 758 mmHg 72%
    23:00 +18°C° 0 mm 3 mps 758 mmHg 74%

    28 January, Monday

    Time Temperature Precipitation Wind Pressure Humidity
    00:00 +17°C° 0 mm 3 mps 757 mmHg 76%
    01:00 +17°C° 0 mm 3 mps 757 mmHg 77%
    02:00 +17°C° 0 mm 2 mps 757 mmHg 79%
    03:00 +17°C° 0 mm 2 mps 757 mmHg 80%
    04:00 +17°C° 0 mm 2 mps 757 mmHg 78%
    05:00 +17°C° 0 mm 2 mps 757 mmHg 77%
    06:00 +18°C° 0 mm 1 mps 757 mmHg 75%
    07:00 +21°C° 0 mm 1 mps 757 mmHg 64%
    08:00 +23°C° 0 mm 2 mps 757 mmHg 53%
    09:00 +26°C° 0 mm 2 mps 758 mmHg 41%
    10:00 +27°C° 0 mm 2 mps 757 mmHg 38%
    11:00 +28°C° 0 mm 3 mps 757 mmHg 35%
    12:00 +29°C° 0 mm 3 mps 757 mmHg 31%
    13:00 +29°C° 0 mm 4 mps 756 mmHg 30%
    14:00 +29°C° 0 mm 4 mps 756 mmHg 28%
    15:00 +30°C° 0 mm 4 mps 756 mmHg 27%
    16:00 +29°C° 0 mm 4 mps 756 mmHg 30%
    17:00 +28°C° 0 mm 4 mps 756 mmHg 34%
    18:00 +27°C° 0 mm 4 mps 756 mmHg 37%
    19:00 +25°C° 0 mm 4 mps 756 mmHg 47%
    20:00 +22°C° 0 mm 4 mps 757 mmHg 58%
    21:00 +20°C° 0 mm 4 mps 757 mmHg 68%
    22:00 +20°C° 0 mm 3 mps 757 mmHg 72%
    23:00 +19°C° 0 mm 3 mps 757 mmHg 77%

    29 January, Tuesday

    Time Temperature Precipitation Wind Pressure Humidity
    00:00 +18°C° 0 mm 3 mps 757 mmHg 82%
    01:00 +18°C° 0 mm 2 mps 757 mmHg 82%
    02:00 +18°C° 0 mm 2 mps 756 mmHg 83%
    03:00 +18°C° 0 mm 2 mps 756 mmHg 83%
    04:00 +18°C° 0 mm 2 mps 756 mmHg 80%
    05:00 +20°C° 0 mm 1 mps 757 mmHg 76%
    06:00 +20°C° 0 mm 1 mps 757 mmHg 73%
    07:00 +23°C° 0 mm 1 mps 757 mmHg 59%
    08:00 +27°C° 0 mm 1 mps 757 mmHg 45%
    09:00 +28°C° 0 mm 0 mps 757 mmHg 31%
    10:00 +31°C° 0 mm 1 mps 757 mmHg 29%
    11:00 +32°C° 0 mm 2 mps 756 mmHg 27%
    12:00 +34°C° 0 mm 4 mps 756 mmHg 25%
    13:00 +34°C° 0 mm 4 mps 755 mmHg 25%
    14:00 +34°C° 0 mm 4 mps 755 mmHg 24%
    15:00 +34°C° 0 mm 4 mps 754 mmHg 24%
    16:00 +33°C° 0 mm 4 mps 754 mmHg 28%
    17:00 +30°C° 0 mm 5 mps 754 mmHg 33%
    18:00 +29°C° 0 mm 5 mps 754 mmHg 37%
    19:00 +27°C° 0 mm 5 mps 755 mmHg 43%
    20:00 +25°C° 0 mm 4 mps 755 mmHg 50%
    21:00 +22°C° 0 mm 4 mps 755 mmHg 56%
    22:00 +22°C° 0 mm 4 mps 755 mmHg 57%
    23:00 +22°C° 0 mm 4 mps 755 mmHg 59%
    Show more